432  
ASUS46 KSGX 240511  
RWRSGX  
 
SAN DIEGO HOURLY WEATHER ROUNDUP  
NATIONAL WEATHER SERVICE SAN DIEGO CA  
900 PM PST THU JAN 23 2020  
 
NOTE: "FAIR" INDICATES FEW OR NO CLOUDS BELOW 12,000 FEET WITH NO  
SIGNIFICANT WEATHER AND/OR S TO VISIBILITY
.  
 
CAZ042-043-060-061-PZZ750-775-240600-  
 
GREATER SAN DIEGO AREA  
 
CITY SKY/WX TMP DP RH WIND PRES REMARKS
 
SAN DIEGO AP PTCLDY 58 56 93 CALM 30.07R FOG  
NATIONAL CITY N/A N/A N/A N/A CALM 30.06R  
CHULA VISTA N/A 55 51 88 CALM 29.96S  
BROWN FIELD CLEAR 53 51 93 CALM 30.05R FOG  
MIRAMAR MCAS CLEAR 57 53 86 N5 30.05S FOG  
MONTGOMERY FLD CLEAR 56 53 90 N5 30.05S FOG  
GILLESPIE FLD CLEAR 54 48 82 CALM 30.06S  
 

 
 
NORTH SAN DIEGO COUNTY  
 
CITY SKY/WX TMP DP RH WIND PRES REMARKS
 
CAMP PENDLETON PTCLDY 51 46 83 NE3 30.06R  
OCEANSIDE AP MOCLDY 51 49 92 CALM 30.06R FOG  
OCEANSIDE HBR N/A 55 53 93 NE3 30.14R  
CARLSBAD CLEAR 56 54 93 CALM 30.05R FOG  
LA JOLLA SCRIP N/A 55 52 90 CALM 30.06R  
FALLBROOK FAIR 55 50 82 N3 30.07R  
ESCONDIDO N/A 56 48 74 CALM 30.06S  
SAN MARCOS N/A 56 51 83 CALM 30.09S  
POWAY N/A 50 47 87 CALM 30.07R  
 

 
 
EAST SAN DIEGO COUNTY  
 
CITY SKY/WX TMP DP RH WIND PRES REMARKS
 
RAMONA CLEAR 45 43 93 SE5 30.07S  
LA MESA N/A 57 50 77 CALM 30.01S  
JAMUL N/A 48 46 91 CALM 30.06R  
DESCANSO N N/A 46 33 61 NE3 30.04R  
MT. LAGUNA OBS N/A 41 28 59 CALM 30.08R  
CAMPO N/A 44 32 62 NE7 30.07R  
 

 
 
ORANGE COUNTY AND THE LOS ANGELES BASIN  
 
CITY SKY/WX TMP DP RH WIND PRES REMARKS
 
JOHN WAYNE AP CLEAR 60 53 77 CALM 30.05R  
LAGUNA BEACH N/A 51 48 87 CALM 30.05R  
LAKE FOREST FR N/A 60 36 40 CALM 29.94R  
HUNTINGTON BCH N/A 52 51 97 CALM 30.05S  
LOS ALAMITOS CLEAR 57 49 74 CALM 30.04S  
FULLERTON CLEAR 57 48 72 CALM 30.04S  
LONG BEACH CLEAR 58 52 80 CALM 30.04S  
L.A. AP PTCLDY 61 54 77 CALM 30.04S  
L.A. DOWNTOWN CLEAR 60 52 74 CALM 30.04S  
 

 
 
THE INLAND EMPIRE  
 
CITY SKY/WX TMP DP RH WIND PRES REMARKS
 
CORONA CLEAR 52 46 80 E3 30.07R  
CHINO CLEAR 55 41 59 CALM 30.08  
ONTARIO PTCLDY 58 42 55 CALM 30.07R  
SAN BERNARDINO CLEAR 59 37 44 CALM 30.08R  
RIVERSIDE AP CLEAR 57 44 62 S5 30.07R  
MORENO VALLEY N/A 57 44 61 CALM 30.07R  
MARCH ARB CLEAR 47 47 100 NW7 30.08R  
HORSETHIEF CYN N/A 55 36 49 NW3 30.07R  
PERRIS N/A 60 48 64 NE3 30.12R  
HEMET EAST N/A 54 34 45 CALM 30.12R  
FRENCH VALLEY FAIR 52 45 76 CALM 30.08R  
TEMECULA N/A 55 49 82 CALM 30.05R  
 

 
 
SAN BERNARDINO AND RIVERSIDE COUNTY MOUNTAINS  
 
CITY SKY/WX TMP DP RH WIND PRES REMARKS
 
BIG BEAR AP CLEAR 27 23 86 CALM 30.24R  
GARNER VALLEY N/A 33 27 77 CALM 30.09R  
 

 
 
SOUTHERN DESERT INCLUDING THE COACHELLA VALLEY  
 
CITY SKY/WX TMP DP RH WIND PRES REMARKS
 
PALM SPRINGS CLEAR 67 34 29 W6 30.06R  
THOUSAND PALMS N/A 57 40 52 NE1 30.01R  
PALM DESERT N/A 59 45 59 CALM 30.93S  
THERMAL PTCLDY 52 40 63 N5 30.02R  
BORREGO AP MOCLDY 46 39 76 N3 30.04S  
BLYTHE CLEAR 55 38 52 N9 30.03R  
IMPERIAL AP CLEAR 56 40 55 CALM 30.01R  
EL CENTRO NAS PTCLDY 57 35 43 W7 30.03S  
YUMA AZ CLEAR 60 39 45 NW5 30.01S  
MEXICALI CLEAR 63 36 36 W5 30.03R  
 

 
 
UPPER DESERT  
 
CITY SKY/WX TMP DP RH WIND PRES REMARKS
 
HESPERIA N/A 47 35 61 W5 30.21R  
APPLE VALLEY N/A 41 34 75 E2 30.22R  
PALMDALE CLEAR 46 36 68 CALM 30.14R  
LANCASTER CLEAR 44 36 73 CALM 30.14R  
EDWARDS AFB PTCLDY 45 36 71 SW8 30.12R  
DAGGETT CLEAR 51 32 48 W7 30.12R  
29 PALMS N CLEAR 52 31 44 CALM 30.18R  
NEEDLES CLEAR 55 35 47 SW7 30.06R  
 

 
 
REGIONAL REPORTS  
 
CITY SKY/WX TMP DP RH WIND PRES REMARKS
 
SANTA BARBARA CLEAR 51 50 96 CALM 30.03S  
SANDBERG CLEAR 49 33 54 NE9 30.17S  
LAS VEGAS NV MOCLDY 54 33 45 CALM 30.12S  
PHOENIX AZ CLEAR 60 42 51 W3 30.00S  
TIJUANA PTCLDY 55 55 100 NE5 30.08R  
ENSENADA NW N/A 57 32 39 N2 30.02R  
 

 
 
OFFSHORE ISLANDS  
 
CITY SKY/WX TMP DP RH WIND PRES REMARKS
 
CATALINA ARPT CLEAR 64 33 31 NW10 30.08S  
SAN CLEMENTE I CLOUDY 52 32 46 S6 30.08S  
SAN NICOLAS IS CLEAR 57 44 62 W13 30.05F  
 

 
 
MARINE AND OFFSHORE BUOY REPORTS  
 
STATION/POSITION SKY/WX TEMP WIND PRES VSBY SWELL
 
AIR SEA DIR/SP/G HT/PER/DIR  
(F) (DEG/KT/KT) (MB) (MI) (FT/S/D)  
TANNER BANKS 54 59 330/ 6/ 8 1018.2F 7/290/12  
S CLEMENTE BASIN 54 60 300/ 12/ 14 1018.1R 5/260/13  
SAN NICOLAS IS. 58 N/A 5/290/12  
SO. S. ROSA ISLA 58 1018.0F  
W. S. BARBARA CH 58 56 300/ 14/ 16 1017.3F 5/290/11  
M. S. BARBARA CH 60 60 220/ 8/ 10 1017.2F 3/250/12  
S. MONICA BASIN 60 60 280/ 6/ 8 1017.6R 3/270/11  
S PEDRO CHANNEL 61 N/A 3/270/13  
OCEANSIDE OFFSHR 60 N/A 2/240/13  
TORREY PINES OTR 58 N/A 3/280/13  
SAN DIEGO BAY 60 1017.4  
IMPERIAL BEACH 60 N/A 3/270/13  
POINT LOMA SOUTH 60 N/A 3/270/12  
 

 
 
 
 
CLICK HERE TO GO TO PREVIOUS BULLETINS.

The Nexlab CA Page Main Text Page